Location: Newark
(49.8969°N, 3.3422°E)
Time: 05:54:04
(UTC+00:00)

Tiros 1 - All Passes

Search period start: 22 January 2020 00:00
Search period end: 01 February 2020 00:00
Orbit: 630 x 664 km, 48.4° (Epoch: 21 January)

Date Brightness Start Highest point End Pass type
(mag) Time Alt. Az. Time Alt. Az. Time Alt. Az.
22 Jan - 13:05:36 10° S 13:09:04 21° SE 13:12:35 10° E daylight
22 Jan - 14:46:01 10° WSW 14:50:38 54° SSE 14:55:18 10° E daylight
22 Jan - 16:27:55 10° W 16:32:41 76° S 16:37:29 10° E daylight
22 Jan - 18:10:05 10° W 18:14:43 49° SSW 18:19:21 10° SE visible
22 Jan - 19:53:01 10° W 19:56:12 18° SW 19:59:23 10° S visible
23 Jan - 13:30:30 10° SW 13:34:45 34° SSE 13:39:03 10° E daylight
23 Jan - 15:11:53 10° WSW 15:16:36 70° S 15:21:22 10° E daylight
23 Jan - 16:53:58 10° W 16:58:42 68° S 17:03:29 10° ESE visible
23 Jan - 18:36:17 10° W 18:40:32 32° SSW 18:44:47 10° SSE visible
24 Jan - 12:15:45 10° S 12:19:05 19° SE 12:22:25 10° E daylight
24 Jan - 13:56:01 10° SW 14:00:35 52° SSE 14:05:14 10° E daylight
24 Jan - 15:37:53 10° W 15:42:38 76° S 15:47:25 10° E daylight
24 Jan - 17:20:02 10° W 17:24:40 51° SSW 17:29:19 10° SE visible
24 Jan - 19:02:51 10° W 19:06:11 19° SW 19:09:31 10° S visible
25 Jan - 12:40:33 10° SSW 12:44:44 33° SSE 12:48:58 10° E daylight
25 Jan - 14:21:51 10° WSW 14:26:33 69° S 14:31:17 10° E daylight
25 Jan - 16:03:56 10° W 16:08:39 69° S 16:13:25 10° ESE daylight
25 Jan - 17:46:13 10° W 17:50:30 34° SSW 17:54:48 10° SE visible
26 Jan - 11:25:55 10° S 11:29:05 18° SE 11:32:15 10° E daylight
26 Jan - 13:06:01 10° SW 13:10:33 50° SSE 13:15:09 10° E daylight
26 Jan - 14:47:51 10° W 14:52:35 76° S 14:57:21 10° E daylight
26 Jan - 16:30:00 10° W 16:34:37 53° SSW 16:39:17 10° ESE daylight
26 Jan - 18:12:43 10° W 18:16:11 20° SW 18:19:38 10° S visible
27 Jan - 11:50:36 10° SSW 11:54:43 31° SSE 11:58:52 10° E daylight
27 Jan - 13:31:49 10° WSW 13:36:30 67° S 13:41:13 10° E daylight
27 Jan - 15:13:53 10° W 15:18:36 70° S 15:23:22 10° ESE daylight
27 Jan - 16:56:08 10° W 17:00:28 35° SSW 17:04:49 10° SE visible
27 Jan - 18:41:04 10° SW 18:41:41 10° SW 18:42:16 10° SW visible
28 Jan - 10:36:07 10° S 10:39:05 17° SE 10:42:04 10° E daylight
28 Jan - 12:16:01 10° SW 12:20:31 48° SSE 12:25:05 10° E daylight
28 Jan - 13:57:48 10° W 14:02:31 75° S 14:07:17 10° E daylight
28 Jan - 15:39:57 10° W 15:44:35 55° SSW 15:49:15 10° ESE daylight
28 Jan - 17:22:35 10° W 17:26:10 21° SW 17:29:44 10° SSE visible
29 Jan - 11:00:40 10° SSW 11:04:42 29° SSE 11:08:46 10° E daylight
29 Jan - 12:41:48 10° WSW 12:46:27 65° SSE 12:51:09 10° E daylight
29 Jan - 14:23:51 10° W 14:28:33 71° S 14:33:18 10° ESE daylight
29 Jan - 16:06:05 10° W 16:10:26 37° SSW 16:14:49 10° SE daylight
29 Jan - 17:50:20 10° WSW 17:51:41 11° SW 17:53:01 10° SSW visible
30 Jan - 09:46:20 10° S 09:49:05 16° SE 09:51:52 10° ESE daylight
30 Jan - 11:26:02 10° SW 11:30:29 46° SSE 11:35:00 10° E daylight
30 Jan - 13:07:46 10° W 13:12:28 75° S 13:17:13 10° E daylight
30 Jan - 14:49:54 10° W 14:54:31 57° SSW 14:59:12 10° ESE daylight
30 Jan - 16:32:28 10° W 16:36:09 22° SW 16:39:50 10° SSE daylight
31 Jan - 10:10:45 10° SSW 10:14:41 28° SSE 10:18:40 10° E daylight
31 Jan - 11:51:47 10° WSW 11:56:24 64° SSE 12:01:05 10° E daylight
31 Jan - 13:33:48 10° W 13:38:30 72° S 13:43:14 10° ESE daylight
31 Jan - 15:16:01 10° W 15:20:24 38° SSW 15:24:49 10° SE daylight
31 Jan - 16:59:54 10° WSW 17:01:41 12° SW 17:03:28 10° SSW daylight
